20040114,000000,709022,32.141333,-122.095833,NaN,NaN,NaN,NaN
20040114,000029,709051,32.140667,-122.097167,16.044,32.862,NaN,NaN
20040114,000059,709081,32.140000,-122.098500,16.053,32.864,NaN,NaN
20040114,000128,709110,32.139500,-122.099667,16.050,32.865,NaN,NaN
20040114,000158,709140,32.138833,-122.101000,16.034,32.866,NaN,NaN
20040114,000229,709171,32.138167,-122.102333,15.996,32.866,NaN,NaN
20040114,000259,709201,32.137500,-122.103500,15.965,32.865,NaN,NaN
20040114,000329,709231,32.137000,-122.104833,15.934,32.858,NaN,NaN
20040114,000358,709260,32.136333,-122.106000,15.914,32.849,NaN,NaN
20040114,000428,709290,32.135667,-122.107333,15.899,32.837,NaN,NaN
20040114,000459,709321,32.135167,-122.108667,15.867,32.819,NaN,NaN
20040114,000529,709351,32.134500,-122.109833,15.854,32.805,NaN,NaN
20040114,000558,709380,32.133833,-122.111167,15.842,32.800,NaN,NaN
20040114,000628,709410,32.133167,-122.112500,15.827,32.797,NaN,NaN
20040114,000659,709441,32.132667,-122.113667,15.816,32.797,NaN,NaN
20040114,000729,709471,32.132000,-122.115000,15.799,32.799,NaN,NaN
20040114,000759,709501,32.131333,-122.116333,15.766,32.801,NaN,NaN
20040114,000828,709530,32.130667,-122.117500,15.717,32.800,NaN,NaN
20040114,000858,709560,32.130000,-122.118833,15.738,32.793,NaN,NaN
20040114,000929,709591,32.129333,-122.120167,15.767,32.795,NaN,NaN
20040114,000959,709621,32.128833,-122.121333,15.762,32.798,NaN,NaN
20040114,001028,709650,32.128167,-122.122667,15.739,32.799,NaN,NaN
20040114,001058,709680,32.127500,-122.124000,15.725,32.799,NaN,NaN
20040114,001129,709711,32.126833,-122.125167,15.715,32.798,NaN,NaN
20040114,001159,709741,32.126333,-122.126500,15.716,32.798,NaN,NaN
20040114,001229,709771,32.125667,-122.127667,15.708,32.795,NaN,NaN
20040114,001258,709800,32.125000,-122.129000,15.719,32.794,NaN,NaN
20040114,001328,709830,32.124333,-122.130167,15.719,32.795,NaN,NaN
20040114,001359,709861,32.123667,-122.131500,15.720,32.794,NaN,NaN
20040114,001429,709891,32.123167,-122.132833,15.735,32.792,NaN,NaN
20040114,001458,709920,32.122500,-122.134000,15.733,32.793,NaN,NaN
20040114,001528,709950,32.121833,-122.135333,15.741,32.792,NaN,NaN
20040114,001559,709981,32.121167,-122.136500,15.738,32.793,NaN,NaN
20040114,001629,710011,32.120500,-122.137833,15.734,32.793,NaN,NaN
20040114,001659,710041,32.119833,-122.139000,15.750,32.791,NaN,NaN
20040114,001728,710070,32.119167,-122.140333,15.771,32.791,NaN,NaN
20040114,001758,710100,32.118667,-122.141500,15.783,32.792,NaN,NaN
20040114,001829,710131,32.118000,-122.142833,15.783,32.792,NaN,NaN
20040114,001859,710161,32.117333,-122.144000,15.790,32.790,NaN,NaN
20040114,001928,710190,32.116667,-122.145333,15.805,32.790,NaN,NaN
20040114,001958,710220,32.116000,-122.146500,15.816,32.789,NaN,NaN
20040114,002029,710251,32.115500,-122.147833,15.829,32.789,NaN,NaN
20040114,002059,710281,32.114833,-122.149000,15.845,32.790,NaN,NaN
20040114,002129,710311,32.114167,-122.150167,15.862,32.790,NaN,NaN
20040114,002158,710340,32.113500,-122.151500,15.876,32.790,NaN,NaN
20040114,002228,710370,32.112833,-122.152667,15.902,32.788,NaN,NaN
20040114,002259,710401,32.112167,-122.154000,15.924,32.788,NaN,NaN
20040114,002329,710431,32.111500,-122.155167,15.922,32.788,NaN,NaN
20040114,002358,710460,32.110833,-122.156500,15.901,32.787,NaN,NaN
20040114,002428,710490,32.110333,-122.157667,15.886,32.786,NaN,NaN
20040114,002459,710521,32.109667,-122.159000,15.863,32.788,NaN,NaN
20040114,002529,710551,32.109000,-122.160167,15.823,32.786,NaN,NaN
20040114,002559,710581,32.108333,-122.161500,15.793,32.784,NaN,NaN
20040114,002628,710610,32.107667,-122.162667,15.808,32.780,NaN,NaN
20040114,002658,710640,32.107000,-122.164000,15.839,32.779,NaN,NaN
20040114,002729,710671,32.106333,-122.165333,15.864,32.779,NaN,NaN
20040114,002759,710701,32.105667,-122.166500,15.875,32.781,NaN,NaN
20040114,002828,710730,32.105000,-122.167833,15.876,32.782,NaN,NaN
20040114,002858,710760,32.104333,-122.169167,15.871,32.783,NaN,NaN
20040114,002929,710791,32.103667,-122.170333,15.862,32.782,NaN,NaN
20040114,002959,710821,32.103000,-122.171667,15.860,32.780,NaN,NaN
20040114,003029,710851,32.102333,-122.173000,15.860,32.777,NaN,NaN
20040114,003058,710880,32.101667,-122.174167,15.797,32.777,NaN,NaN
20040114,003128,710910,32.101000,-122.175500,15.716,32.769,NaN,NaN
20040114,003159,710941,32.100500,-122.176667,15.673,32.763,NaN,NaN
20040114,003229,710971,32.099833,-122.178000,15.693,32.756,NaN,NaN
20040114,003258,711000,32.099167,-122.179333,15.733,32.753,NaN,NaN
20040114,003328,711030,32.098500,-122.180667,15.744,32.758,NaN,NaN
20040114,003359,711061,32.097833,-122.181833,15.732,32.760,NaN,NaN
20040114,003429,711091,32.097167,-122.183167,15.700,32.763,NaN,NaN
20040114,003459,711121,32.096500,-122.184500,15.675,32.762,NaN,NaN
20040114,003528,711150,32.095833,-122.185667,15.657,32.761,NaN,NaN
20040114,003558,711180,32.095167,-122.187000,15.669,32.760,NaN,NaN
20040114,003629,711211,32.094500,-122.188333,15.672,32.762,NaN,NaN
20040114,003659,711241,32.093833,-122.189667,15.684,32.762,NaN,NaN
20040114,003728,711270,32.093167,-122.190833,15.708,32.765,NaN,NaN
20040114,003758,711300,32.092500,-122.192167,15.762,32.770,NaN,NaN
20040114,003829,711331,32.091833,-122.193500,15.790,32.778,NaN,NaN
20040114,003859,711361,32.091167,-122.194667,15.795,32.783,NaN,NaN
20040114,003929,711391,32.090500,-122.196000,15.815,32.781,NaN,NaN
20040114,003958,711420,32.089833,-122.197333,15.848,32.784,NaN,NaN
20040114,004028,711450,32.089167,-122.198667,15.856,32.788,NaN,NaN
20040114,004059,711481,32.088500,-122.199833,15.848,32.787,NaN,NaN
20040114,004129,711511,32.087833,-122.201167,15.847,32.788,NaN,NaN
20040114,004158,711540,32.087167,-122.202500,15.863,32.786,NaN,NaN
20040114,004228,711570,32.086500,-122.203833,15.888,32.787,NaN,NaN
20040114,004259,711601,32.085833,-122.205000,15.894,32.789,NaN,NaN
20040114,004329,711631,32.085167,-122.206333,15.868,32.791,NaN,NaN
20040114,004359,711661,32.084500,-122.207667,15.842,32.792,NaN,NaN
20040114,004428,711690,32.083833,-122.209000,15.816,32.791,NaN,NaN
20040114,004458,711720,32.083167,-122.210167,15.824,32.786,NaN,NaN
20040114,004529,711751,32.082500,-122.211500,15.859,32.786,NaN,NaN
20040114,004559,711781,32.081833,-122.212833,15.851,32.788,NaN,NaN
20040114,004628,711810,32.081167,-122.214000,15.838,32.787,NaN,NaN
20040114,004658,711840,32.080500,-122.215333,15.837,32.785,NaN,NaN
20040114,004729,711871,32.079833,-122.216667,15.817,32.788,NaN,NaN
20040114,004759,711901,32.079167,-122.218000,15.794,32.785,NaN,NaN
20040114,004829,711931,32.078500,-122.219167,15.790,32.784,NaN,NaN
20040114,004858,711960,32.077833,-122.220500,15.783,32.786,NaN,NaN
20040114,004928,711990,32.077167,-122.221667,15.775,32.785,NaN,NaN
20040114,004959,712021,32.076500,-122.223000,15.770,32.783,NaN,NaN
20040114,005029,712051,32.075833,-122.224333,15.774,32.783,NaN,NaN
20040114,005058,712080,32.075167,-122.225667,15.778,32.782,NaN,NaN
20040114,005128,712110,32.074333,-122.226833,15.780,32.782,NaN,NaN
20040114,005159,712141,32.073833,-122.228167,15.789,32.783,NaN,NaN
20040114,005229,712171,32.073167,-122.229500,15.789,32.783,NaN,NaN
20040114,005259,712201,32.072500,-122.230667,15.806,32.781,NaN,NaN
20040114,005328,712230,32.071833,-122.232000,15.835,32.781,NaN,NaN
20040114,005358,712260,32.071000,-122.233333,15.843,32.783,NaN,NaN
20040114,005429,712291,32.070333,-122.234667,15.849,32.782,NaN,NaN
20040114,005459,712321,32.069667,-122.235833,15.858,32.783,NaN,NaN
20040114,005528,712350,32.069000,-122.237167,15.861,32.782,NaN,NaN
20040114,005558,712380,32.068333,-122.238500,15.873,32.782,NaN,NaN
20040114,005629,712411,32.067667,-122.239833,15.885,32.781,NaN,NaN
20040114,005659,712441,32.067000,-122.241000,15.913,32.780,NaN,NaN
20040114,005729,712471,32.066333,-122.242333,15.911,32.782,NaN,NaN
20040114,005758,712500,32.065667,-122.243667,15.895,32.782,NaN,NaN
20040114,005828,712530,32.065000,-122.244833,15.858,32.785,NaN,NaN
20040114,005859,712561,32.064333,-122.246167,15.819,32.782,NaN,NaN
20040114,005929,712591,32.063667,-122.247500,15.795,32.783,NaN,NaN
20040114,005958,712620,32.063000,-122.248667,15.789,32.782,NaN,NaN
20040114,010028,712650,32.062333,-122.250000,15.793,32.782,NaN,NaN
20040114,010059,712681,32.061667,-122.251333,15.800,32.780,NaN,NaN
20040114,010129,712711,32.061000,-122.252667,15.796,32.781,NaN,NaN
20040114,010159,712741,32.060333,-122.253833,15.787,32.782,NaN,NaN
20040114,010228,712770,32.059667,-122.255167,15.774,32.783,NaN,NaN
20040114,010258,712800,32.059000,-122.256500,15.770,32.783,NaN,NaN
20040114,010329,712831,32.058333,-122.257833,15.768,32.782,NaN,NaN
20040114,010359,712861,32.057667,-122.259000,15.767,32.783,NaN,NaN
20040114,010428,712890,32.057000,-122.260333,15.756,32.782,NaN,NaN
20040114,010458,712920,32.056333,-122.261667,15.750,32.783,NaN,NaN
20040114,010529,712951,32.055667,-122.262833,15.751,32.783,NaN,NaN
20040114,010559,712981,32.055000,-122.264167,15.750,32.782,NaN,NaN
20040114,010629,713011,32.054333,-122.265500,15.751,32.782,NaN,NaN
20040114,010658,713040,32.053667,-122.266833,15.745,32.784,NaN,NaN
20040114,010728,713070,32.053000,-122.268000,15.736,32.784,NaN,NaN
20040114,010759,713101,32.052333,-122.269333,15.742,32.783,NaN,NaN
20040114,010829,713131,32.051667,-122.270667,15.733,32.785,NaN,NaN
20040114,010858,713160,32.051000,-122.271833,15.716,32.786,NaN,NaN
20040114,010928,713190,32.050333,-122.273167,15.708,32.786,NaN,NaN
20040114,010959,713221,32.049667,-122.274500,15.719,32.784,NaN,NaN
20040114,011029,713251,32.049000,-122.275667,15.737,32.785,NaN,NaN
20040114,011059,713281,32.048333,-122.277000,15.737,32.786,NaN,NaN
20040114,011128,713310,32.047833,-122.278333,15.726,32.786,NaN,NaN
20040114,011158,713340,32.047167,-122.279500,15.732,32.785,NaN,NaN
20040114,011229,713371,32.046500,-122.280833,15.752,32.783,NaN,NaN
20040114,011259,713401,32.045833,-122.282000,15.778,32.783,NaN,NaN
20040114,011328,713430,32.045167,-122.283333,15.792,32.783,NaN,NaN
20040114,011358,713460,32.044333,-122.284500,15.804,32.784,NaN,NaN
20040114,011429,713491,32.043667,-122.285833,15.794,32.785,NaN,NaN
20040114,011459,713521,32.043000,-122.287167,15.776,32.786,NaN,NaN
20040114,011529,713551,32.042333,-122.288333,15.774,32.786,NaN,NaN
20040114,011558,713580,32.041667,-122.289667,15.767,32.785,NaN,NaN
20040114,011628,713610,32.041000,-122.290833,15.761,32.785,NaN,NaN
20040114,011659,713641,32.040333,-122.292000,15.753,32.784,NaN,NaN
20040114,011729,713671,32.039667,-122.293333,15.750,32.784,NaN,NaN
20040114,011758,713700,32.039000,-122.294500,15.750,32.784,NaN,NaN
20040114,011828,713730,32.038167,-122.295833,15.753,32.782,NaN,NaN
20040114,011859,713761,32.037500,-122.297000,15.767,32.781,NaN,NaN
20040114,011929,713791,32.036833,-122.298333,15.777,32.780,NaN,NaN
20040114,011959,713821,32.036167,-122.299500,15.781,32.780,NaN,NaN
20040114,012028,713850,32.035500,-122.300833,15.784,32.779,NaN,NaN
20040114,012058,713880,32.034833,-122.302000,15.792,32.779,NaN,NaN
20040114,012129,713911,32.034167,-122.303167,15.801,32.778,NaN,NaN
20040114,012159,713941,32.033333,-122.304500,15.797,32.780,NaN,NaN
20040114,012228,713970,32.032667,-122.305667,15.795,32.780,NaN,NaN
20040114,012258,714000,32.032000,-122.307000,15.808,32.782,NaN,NaN
20040114,012329,714031,32.031333,-122.308167,15.822,32.784,NaN,NaN
20040114,012359,714061,32.030667,-122.309500,15.865,32.788,NaN,NaN
20040114,012429,714091,32.030000,-122.310667,15.886,32.796,NaN,NaN
20040114,012458,714120,32.029333,-122.312000,15.868,32.794,NaN,NaN
20040114,012528,714150,32.028667,-122.313167,15.864,32.786,NaN,NaN
20040114,012559,714181,32.028000,-122.314500,15.829,32.772,NaN,NaN
20040114,012629,714211,32.027333,-122.315833,15.710,32.748,NaN,NaN
20040114,012658,714240,32.026833,-122.317000,15.618,32.726,NaN,NaN
20040114,012728,714270,32.026167,-122.318333,15.578,32.698,NaN,NaN
20040114,012759,714301,32.025500,-122.319667,15.537,32.691,NaN,NaN
20040114,012829,714331,32.024833,-122.321000,15.471,32.685,NaN,NaN
20040114,012859,714361,32.024333,-122.322167,15.470,32.680,NaN,NaN
20040114,012928,714390,32.023667,-122.323500,15.495,32.678,NaN,NaN
20040114,012958,714420,32.023000,-122.324833,15.523,32.680,NaN,NaN
20040114,013029,714451,32.022333,-122.326167,15.528,32.683,NaN,NaN
20040114,013059,714481,32.021667,-122.327333,15.496,32.682,NaN,NaN
20040114,013128,714510,32.021000,-122.328667,15.469,32.679,NaN,NaN
20040114,013158,714540,32.020333,-122.330000,15.448,32.677,NaN,NaN
20040114,013229,714571,32.019667,-122.331333,15.448,32.677,NaN,NaN
20040114,013259,714601,32.019000,-122.332500,15.461,32.678,NaN,NaN
20040114,013329,714631,32.018333,-122.333833,15.488,32.678,NaN,NaN
20040114,013358,714660,32.017667,-122.335167,15.508,32.678,NaN,NaN
20040114,013428,714690,32.017167,-122.336333,15.505,32.676,NaN,NaN
20040114,013459,714721,32.016500,-122.337667,15.500,32.673,NaN,NaN
20040114,013529,714751,32.015833,-122.339000,15.485,32.671,NaN,NaN
20040114,013558,714780,32.015167,-122.340333,15.475,32.669,NaN,NaN
20040114,013628,714810,32.014500,-122.341500,15.494,32.666,NaN,NaN
20040114,013659,714841,32.013833,-122.342833,15.508,32.667,NaN,NaN
20040114,013729,714871,32.013167,-122.344167,15.518,32.666,NaN,NaN
20040114,013759,714901,32.012500,-122.345500,15.519,32.668,NaN,NaN
20040114,013828,714930,32.011833,-122.346667,15.523,32.667,NaN,NaN
20040114,013858,714960,32.011167,-122.348000,15.531,32.666,NaN,NaN
20040114,013929,714991,32.010500,-122.349333,15.546,32.665,NaN,NaN
20040114,013959,715021,32.009833,-122.350667,15.554,32.665,NaN,NaN
20040114,014028,715050,32.009167,-122.351833,15.545,32.666,NaN,NaN
20040114,014058,715080,32.008500,-122.353167,15.534,32.664,NaN,NaN
20040114,014129,715111,32.007833,-122.354500,15.516,32.664,NaN,NaN
20040114,014159,715141,32.007167,-122.355833,15.494,32.664,NaN,NaN
20040114,014229,715171,32.006500,-122.357000,15.465,32.665,NaN,NaN
20040114,014258,715200,32.005833,-122.358333,15.435,32.664,NaN,NaN
20040114,014328,715230,32.005167,-122.359667,15.424,32.661,NaN,NaN
20040114,014359,715261,32.004333,-122.361000,15.421,32.660,NaN,NaN
20040114,014429,715291,32.003667,-122.362333,15.416,32.660,NaN,NaN
20040114,014458,715320,32.003000,-122.363500,15.410,32.660,NaN,NaN
20040114,014528,715350,32.002333,-122.364833,15.390,32.661,NaN,NaN
20040114,014559,715381,32.001667,-122.366167,15.361,32.662,NaN,NaN
20040114,014629,715411,32.001000,-122.367500,15.345,32.659,NaN,NaN
20040114,014659,715441,32.000333,-122.368667,15.333,32.659,NaN,NaN
20040114,014728,715470,31.999667,-122.370000,15.329,32.657,NaN,NaN
20040114,014758,715500,31.999000,-122.371333,15.322,32.658,NaN,NaN
20040114,014829,715531,31.998333,-122.372667,15.321,32.658,NaN,NaN
20040114,014859,715561,31.997667,-122.374000,15.325,32.657,NaN,NaN
20040114,014928,715590,31.997000,-122.375333,15.332,32.657,NaN,NaN
20040114,014958,715620,31.996500,-122.376667,15.353,32.658,NaN,NaN
20040114,015029,715651,31.996000,-122.378000,15.361,32.660,NaN,NaN
20040114,015059,715681,31.995333,-122.379333,15.364,32.662,NaN,NaN
20040114,015129,715711,31.994833,-122.380667,15.355,32.663,NaN,NaN
20040114,015158,715740,31.994333,-122.382000,15.353,32.663,NaN,NaN
20040114,015228,715770,31.993833,-122.383500,15.348,32.663,NaN,NaN
20040114,015259,715801,31.993167,-122.384833,15.332,32.664,NaN,NaN
20040114,015329,715831,31.992667,-122.386167,15.313,32.664,NaN,NaN
20040114,015358,715860,31.992167,-122.387500,15.298,32.663,NaN,NaN
20040114,015428,715890,31.991500,-122.389000,15.292,32.662,NaN,NaN
20040114,015459,715921,31.991000,-122.390167,15.288,32.660,NaN,NaN
20040114,015529,715951,31.990667,-122.391167,15.282,32.660,NaN,NaN
20040114,015559,715981,31.990833,-122.391667,15.264,32.661,NaN,NaN
20040114,015628,716010,31.991000,-122.391833,15.243,32.657,NaN,NaN
20040114,015658,716040,31.991333,-122.391833,15.224,32.655,NaN,NaN
20040114,015729,716071,31.991500,-122.391667,15.228,32.653,NaN,NaN
20040114,015759,716101,31.991500,-122.391333,15.253,32.654,NaN,NaN
20040114,015828,716130,31.991500,-122.391000,15.263,32.656,NaN,NaN
20040114,015858,716160,31.991500,-122.390667,15.267,32.657,NaN,NaN
20040114,015929,716191,31.991333,-122.390333,15.270,32.657,NaN,NaN
20040114,015959,716221,31.991333,-122.390167,15.268,32.658,NaN,NaN
20040114,020029,716251,31.991167,-122.390000,15.265,32.658,NaN,NaN
20040114,020058,716280,31.991167,-122.389667,15.262,32.659,NaN,NaN
20040114,020128,716310,31.991167,-122.389500,15.256,32.658,NaN,NaN
20040114,020159,716341,31.991000,-122.389333,15.257,32.658,NaN,NaN
20040114,020229,716371,31.991000,-122.389167,15.257,32.658,NaN,NaN
20040114,020258,716400,31.990833,-122.389000,15.260,32.657,NaN,NaN
20040114,020328,716430,31.990833,-122.389000,15.263,32.658,NaN,NaN
20040114,020359,716461,31.990667,-122.388833,15.262,32.658,NaN,NaN
20040114,020429,716491,31.990667,-122.388833,15.259,32.658,NaN,NaN
20040114,020459,716521,31.990500,-122.388667,15.264,32.658,NaN,NaN
20040114,020528,716550,31.990500,-122.388500,15.261,32.658,NaN,NaN
20040114,020558,716580,31.990500,-122.388333,15.258,32.658,NaN,NaN
20040114,020629,716611,31.990500,-122.388333,15.251,32.659,NaN,NaN
20040114,020659,716641,31.990333,-122.388333,15.253,32.658,NaN,NaN
20040114,020728,716670,31.990333,-122.388167,15.254,32.658,NaN,NaN
20040114,020758,716700,31.990333,-122.388167,15.251,32.658,NaN,NaN
20040114,020829,716731,31.990333,-122.388000,15.255,32.658,NaN,NaN
20040114,020859,716761,31.990167,-122.387833,15.225,32.659,NaN,NaN
20040114,020929,716791,31.990167,-122.387667,15.191,32.655,NaN,NaN
20040114,020958,716820,31.990167,-122.387667,15.173,32.654,NaN,NaN
20040114,021028,716850,31.990167,-122.387667,15.170,32.652,NaN,NaN
20040114,021059,716881,31.990000,-122.387500,15.167,32.652,NaN,NaN
20040114,021129,716911,31.990000,-122.387500,15.169,32.651,NaN,NaN
20040114,021158,716940,31.990000,-122.387333,15.168,32.652,NaN,NaN
20040114,021228,716970,31.990000,-122.387167,15.159,32.652,NaN,NaN
20040114,021259,717001,31.990000,-122.387167,15.151,32.650,NaN,NaN
20040114,021329,717031,31.989833,-122.387167,15.148,32.649,NaN,NaN
20040114,021359,717061,31.989833,-122.387000,15.154,32.649,NaN,NaN
20040114,021428,717090,31.989833,-122.387000,15.158,32.650,NaN,NaN
20040114,021458,717120,31.989833,-122.386833,15.169,32.650,NaN,NaN
20040114,021529,717151,31.989833,-122.386833,15.179,32.651,NaN,NaN
20040114,021559,717181,31.989833,-122.386667,15.187,32.651,NaN,NaN
20040114,021628,717210,31.989833,-122.386667,15.198,32.651,NaN,NaN
20040114,021658,717240,31.989833,-122.386500,15.201,32.653,NaN,NaN
20040114,021729,717271,31.989833,-122.386500,15.195,32.653,NaN,NaN
20040114,021759,717301,31.989833,-122.386333,15.193,32.652,NaN,NaN
20040114,021829,717331,31.989833,-122.386167,15.194,32.652,NaN,NaN
20040114,021858,717360,31.989833,-122.386167,15.193,32.652,NaN,NaN
20040114,021928,717390,31.989833,-122.386000,15.193,32.653,NaN,NaN
20040114,021959,717421,31.989833,-122.386000,15.198,32.653,NaN,NaN
20040114,022029,717451,31.989667,-122.385833,15.202,32.653,NaN,NaN
20040114,022058,717480,31.989667,-122.385667,15.207,32.653,NaN,NaN
20040114,022128,717510,31.989667,-122.385667,15.210,32.653,NaN,NaN
20040114,022159,717541,31.989667,-122.385500,15.210,32.654,NaN,NaN
20040114,022229,717571,31.989667,-122.385500,15.214,32.653,NaN,NaN
20040114,022259,717601,31.989667,-122.385333,15.218,32.653,NaN,NaN
20040114,022328,717630,31.989667,-122.385333,15.222,32.654,NaN,NaN
20040114,022358,717660,31.989500,-122.385000,15.224,32.654,NaN,NaN
20040114,022429,717691,31.989500,-122.385000,15.226,32.655,NaN,NaN
20040114,022459,717721,31.989500,-122.384833,15.229,32.655,NaN,NaN
20040114,022528,717750,31.989500,-122.384667,15.229,32.654,NaN,NaN
20040114,022558,717780,31.989500,-122.384500,15.226,32.655,NaN,NaN
20040114,022629,717811,31.989500,-122.384500,15.217,32.655,NaN,NaN
20040114,022659,717841,31.989333,-122.384333,15.203,32.655,NaN,NaN
20040114,022729,717871,31.989333,-122.384167,15.182,32.654,NaN,NaN
20040114,022758,717900,31.989333,-122.383833,15.164,32.654,NaN,NaN
20040114,022828,717930,31.989333,-122.383667,15.153,32.650,NaN,NaN
20040114,022859,717961,31.989333,-122.383500,15.167,32.649,NaN,NaN
20040114,022929,717991,31.989167,-122.383333,15.167,32.651,NaN,NaN
20040114,022958,718020,31.989000,-122.383167,15.151,32.650,NaN,NaN
20040114,023028,718050,31.988833,-122.383000,15.153,32.650,NaN,NaN
20040114,023059,718081,31.988667,-122.382833,15.166,32.650,NaN,NaN
20040114,023129,718111,31.988500,-122.382667,15.178,32.651,NaN,NaN
20040114,023159,718141,31.988500,-122.382500,15.185,32.652,NaN,NaN
20040114,023228,718170,31.988333,-122.382333,15.184,32.653,NaN,NaN
20040114,023258,718200,31.988333,-122.382167,15.182,32.653,NaN,NaN
20040114,023329,718231,31.988167,-122.382000,15.189,32.653,NaN,NaN
20040114,023359,718261,31.988000,-122.382000,15.191,32.654,NaN,NaN
20040114,023428,718290,31.988000,-122.381833,15.198,32.654,NaN,NaN
20040114,023458,718320,31.987833,-122.381833,15.205,32.654,NaN,NaN
20040114,023529,718351,31.987833,-122.381667,15.211,32.656,NaN,NaN
20040114,023559,718381,31.987667,-122.381500,15.213,32.656,NaN,NaN
20040114,023629,718411,31.987667,-122.381500,15.210,32.656,NaN,NaN
20040114,023658,718440,31.987500,-122.381500,15.205,32.656,NaN,NaN
20040114,023728,718470,31.987333,-122.381333,15.206,32.654,NaN,NaN
20040114,023759,718501,31.987333,-122.381167,15.210,32.656,NaN,NaN
20040114,023829,718531,31.987167,-122.381167,15.204,32.656,NaN,NaN
20040114,023858,718560,31.987167,-122.381000,15.203,32.655,NaN,NaN
20040114,023928,718590,31.987167,-122.381000,15.202,32.656,NaN,NaN
20040114,023959,718621,31.987167,-122.381000,15.198,32.656,NaN,NaN
20040114,024029,718651,31.987000,-122.380833,15.201,32.655,NaN,NaN
20040114,024059,718681,31.986833,-122.380667,15.203,32.655,NaN,NaN
20040114,024128,718710,31.986833,-122.380667,15.201,32.655,NaN,NaN
20040114,024158,718740,31.986833,-122.380500,15.197,32.655,NaN,NaN
20040114,024229,718771,31.986667,-122.380333,15.196,32.655,NaN,NaN
20040114,024259,718801,31.986667,-122.380333,15.192,32.656,NaN,NaN
20040114,024328,718830,31.986667,-122.380167,15.201,32.655,NaN,NaN
20040114,024358,718860,31.986500,-122.380167,15.201,32.655,NaN,NaN
20040114,024429,718891,31.986500,-122.380000,15.193,32.655,NaN,NaN
20040114,024459,718921,31.986333,-122.379833,15.186,32.654,NaN,NaN
20040114,024529,718951,31.986333,-122.379833,15.188,32.654,NaN,NaN
20040114,024558,718980,31.986333,-122.379667,15.191,32.654,NaN,NaN
20040114,024628,719010,31.986333,-122.379667,15.189,32.655,NaN,NaN
20040114,024659,719041,31.986167,-122.379333,15.191,32.654,NaN,NaN
20040114,024729,719071,31.986167,-122.379333,15.190,32.655,NaN,NaN
20040114,024758,719100,31.986167,-122.379167,15.187,32.654,NaN,NaN
20040114,024828,719130,31.986167,-122.379167,15.188,32.655,NaN,NaN
20040114,024859,719161,31.986000,-122.378833,15.190,32.655,NaN,NaN
20040114,024929,719191,31.985667,-122.378500,15.184,32.655,NaN,NaN
20040114,024959,719221,31.985667,-122.378000,15.180,32.655,NaN,NaN
20040114,025028,719250,31.985833,-122.377667,15.174,32.655,NaN,NaN
20040114,025058,719280,31.986000,-122.377500,15.157,32.654,NaN,NaN
20040114,025129,719311,31.986000,-122.377500,15.155,32.652,NaN,NaN
20040114,025159,719341,31.986000,-122.377500,15.165,32.651,NaN,NaN
20040114,025228,719370,31.986000,-122.377667,15.171,32.653,NaN,NaN
20040114,025258,719400,31.986000,-122.377833,15.164,32.653,NaN,NaN
20040114,025329,719431,31.986000,-122.378000,15.158,32.652,NaN,NaN
20040114,025359,719461,31.986000,-122.378167,15.163,32.652,NaN,NaN
20040114,025429,719491,31.986000,-122.378167,15.166,32.653,NaN,NaN
20040114,025458,719520,31.986000,-122.378333,15.168,32.653,NaN,NaN
20040114,025528,719550,31.986167,-122.378333,15.169,32.653,NaN,NaN
20040114,025559,719581,31.986167,-122.378333,15.167,32.652,NaN,NaN